Fort Myers, FL

6:50 AM EDT on July 26, 2017 (GMT -0400)
Page

Weather History for KFMY - October, 2012

Change the Weather History Date:

Friday, October 5, 2012

  Actual Average Record
Temperature  
Mean Temperature 84 °F 80 °F  
Max Temperature 92 °F 89 °F 94 °F (1919)
Min Temperature 75 °F 72 °F 60 °F (1916)
Degree Days  
Heating Degree Days 0 0  
Month to date heating degree days 0 0  
Since 1 July heating degree days 0 0  
Cooling Degree Days 19 15  
Month to date cooling degree days 91 78  
Year to date cooling degree days 3767 3324  
Growing Degree Days 32 (Base 50)    
Moisture  
Dew Point 74 °F    
Average Humidity 84    
Maximum Humidity 94    
Minimum Humidity 56    
Precipitation  
Precipitation 0.00 in 0.13 in 3.64 in (1921)
Month to date precipitation 2.88 0.73  
Year to date precipitation 44.72 50.11  
Sea Level Pressure  
Sea Level Pressure 30.03 in    
Wind  
Wind Speed 6 mph (ENE)    
Max Wind Speed 18 mph    
Max Gust Speed 22 mph    
Visibility 8 miles    
Events Fog , Thunderstorm    
T = Trace of Precipitation, MM = Missing Value Source: NWS Daily Summary

Daily Weather History Graph

Daily Weather History Graph

Search for Another Location

Airport or City:

Trip Planner

Search our weather history database for the weather conditions in past years. The results will help you decide how hot, cold, wet, or windy it might be!

Date:

Astronomy

Oct. 05, 2012 Rise Set
Actual Time 7:22 AM EDT 7:08 PM EDT
Civil Twilight 6:58 AM EDT 7:32 PM EDT
Nautical Twilight 6:31 AM EDT 7:58 PM EDT
Astronomical Twilight 6:05 AM EDT 8:25 PM EDT
Moon 10:56 PM EDT (10/5) 12:03 PM EDT (10/5)
Length of Visible Light 12h 33m
Length of Day
11h 46m
Waning Gibbous, 74% of the Moon is Illuminated
Oct 5
Waning Gibbous
Oct 8
Last Quarter
Oct 15
New
Oct 21
First Quarter
Oct 29
Full

Hourly Weather History & Observations

Time (EDT) Temp. Heat Index Dew Point Humidity Pressure Visibility Wind Dir Wind Speed Gust Speed Precip Events Conditions
12:53 AM 75.9 °F - 73.0 °F 91% 30.10 in 10.0 mi NE 5.8 mph - N/A   Clear
1:53 AM 75.9 °F - 73.0 °F 91% 30.09 in 10.0 mi NE 6.9 mph - N/A   Clear
2:41 AM 75.2 °F - 73.4 °F 94% 30.07 in 10.0 mi ENE 3.5 mph - N/A   Scattered Clouds
2:48 AM 75.2 °F - 73.4 °F 94% 30.07 in 10.0 mi ENE 4.6 mph - N/A   Mostly Cloudy
2:53 AM 75.9 °F - 73.9 °F 94% 30.07 in 10.0 mi ENE 4.6 mph - N/A   Mostly Cloudy
3:17 AM 75.2 °F - 73.4 °F 94% 30.06 in 10.0 mi ENE 3.5 mph - N/A   Scattered Clouds
3:34 AM 75.2 °F - 73.4 °F 94% 30.05 in 10.0 mi NE 3.5 mph - N/A   Mostly Cloudy
3:53 AM 75.9 °F - 73.9 °F 94% 30.06 in 10.0 mi NE 4.6 mph - N/A   Overcast
4:53 AM 75.9 °F - 73.9 °F 94% 30.05 in 10.0 mi ENE 3.5 mph - N/A   Overcast
5:37 AM 75.2 °F - 73.4 °F 94% 30.04 in 2.5 mi ENE 5.8 mph - N/A   Overcast
5:50 AM 75.2 °F - 73.4 °F 94% 30.05 in 1.0 mi NE 6.9 mph - N/A   Overcast
5:53 AM 75.9 °F - 73.9 °F 94% 30.06 in 1.0 mi NE 6.9 mph - N/A   Overcast
6:40 AM 77.0 °F - 73.4 °F 89% 30.06 in 2.5 mi NE 6.9 mph - N/A   Overcast
6:49 AM 77.0 °F - 73.4 °F 89% 30.06 in 3.0 mi NNE 6.9 mph - N/A   Overcast
6:53 AM 77.0 °F - 73.9 °F 90% 30.07 in 2.0 mi NNE 4.6 mph - N/A   Overcast
7:53 AM 77.0 °F - 75.0 °F 94% 30.06 in 2.0 mi ENE 6.9 mph - N/A   Overcast
8:01 AM 77.0 °F - 75.2 °F 94% 30.06 in 1.0 mi ENE 5.8 mph - N/A   Overcast
8:19 AM 77.0 °F - 75.2 °F 94% 30.06 in 0.5 mi ENE 3.5 mph - N/A Fog Fog
8:30 AM 77.0 °F - 75.2 °F 94% 30.06 in 2.0 mi ENE 4.6 mph - N/A   Overcast
8:38 AM 77.0 °F - 75.2 °F 94% 30.06 in 5.0 mi ENE 5.8 mph - N/A   Overcast
8:48 AM 78.8 °F - 75.2 °F 89% 30.06 in 2.0 mi ENE 4.6 mph - N/A   Overcast
8:53 AM 78.1 °F - 75.9 °F 93% 30.07 in 3.0 mi East 4.6 mph - N/A   Overcast
9:11 AM 78.8 °F - 75.2 °F 89% 30.06 in 9.0 mi East 4.6 mph - N/A   Overcast
9:34 AM 80.6 °F 87.1 °F 77.0 °F 89% 30.06 in 10.0 mi ESE 5.8 mph - N/A   Overcast
9:53 AM 80.1 °F 85.4 °F 75.9 °F 87% 30.06 in 10.0 mi East 4.6 mph - N/A   Mostly Cloudy
10:08 AM 82.4 °F 90.9 °F 77.0 °F 84% 30.05 in 10.0 mi East 4.6 mph - N/A   Scattered Clouds
10:53 AM 84.0 °F 93.7 °F 77.0 °F 79% 30.06 in 10.0 mi ESE 9.2 mph - N/A   Scattered Clouds
11:04 AM 84.2 °F 92.3 °F 75.2 °F 74% 30.05 in 10.0 mi ESE 8.1 mph - N/A   Mostly Cloudy
11:18 AM 84.2 °F 92.3 °F 75.2 °F 74% 30.05 in 10.0 mi ESE 8.1 mph - N/A   Scattered Clouds
11:53 AM 86.0 °F 93.8 °F 73.9 °F 67% 30.05 in 10.0 mi ESE 8.1 mph - N/A   Clear
12:53 PM 87.1 °F 94.5 °F 73.0 °F 63% 30.03 in 10.0 mi SE 5.8 mph - N/A   Partly Cloudy
1:53 PM 89.1 °F 95.0 °F 71.1 °F 55% 30.01 in 10.0 mi ESE 4.6 mph - N/A   Scattered Clouds
2:53 PM 90.0 °F 96.4 °F 71.1 °F 54% 29.97 in 10.0 mi Calm Calm - N/A   Partly Cloudy
3:53 PM 90.0 °F 96.9 °F 72.0 °F 55% 29.94 in 10.0 mi North 4.6 mph - N/A   Mostly Cloudy
4:32 PM 89.6 °F 99.8 °F 75.2 °F 62% 29.92 in 10.0 mi WNW 10.4 mph - N/A Thunderstorm Clear
4:53 PM 89.1 °F 99.1 °F 75.0 °F 63% 29.92 in 10.0 mi NW 8.1 mph - N/A   Partly Cloudy
5:51 PM 84.2 °F 92.3 °F 75.2 °F 74% 29.93 in 10.0 mi NW 11.5 mph - N/A Thunderstorm Clear
5:53 PM 84.9 °F 95.3 °F 77.0 °F 77% 29.94 in 10.0 mi NW 12.7 mph - N/A Thunderstorm Clear
6:53 PM 82.9 °F 88.0 °F 72.0 °F 69% 29.96 in 10.0 mi NNE 12.7 mph - N/A Thunderstorm Mostly Cloudy
7:53 PM 77.0 °F - 72.0 °F 84% 29.99 in 10.0 mi SSE 6.9 mph - N/A Thunderstorm Mostly Cloudy
8:05 PM 75.2 °F - 71.6 °F 89% 29.99 in 10.0 mi Calm Calm - N/A   Mostly Cloudy
8:53 PM 77.0 °F - 73.0 °F 88% 30.02 in 10.0 mi Calm Calm - N/A   Mostly Cloudy
9:15 PM 78.8 °F - 73.4 °F 83% 30.02 in 10.0 mi NNE 6.9 mph - N/A   Overcast
9:41 PM 77.0 °F - 71.6 °F 83% 30.02 in 10.0 mi NE 9.2 mph - N/A   Scattered Clouds
9:53 PM 77.0 °F - 72.0 °F 84% 30.02 in 10.0 mi NE 4.6 mph - N/A   Scattered Clouds
10:53 PM 77.0 °F - 73.0 °F 88% 30.00 in 10.0 mi ENE 4.6 mph - N/A   Partly Cloudy
11:53 PM 75.9 °F - 73.0 °F 91% 30.00 in 10.0 mi East 3.5 mph - N/A   Clear